Regional Weather Roundup
Issued by NWS

Home | Current Version | Previous Version | Text Only | Print | Product List | Glossary On
Versions: 1 2 3 4 5 6 7 8 9 10 11 12 13 14 15 16 17 18 19 20 21 22 23 24 25 26 27 28 29 30 31 32 33 34 35 36 37 38 39 40 41 42 43 44 45 46 47 48 49 50
000
ASUS43 KFSD 261010
RWRSD

WEATHER ROUNDUP FOR SOUTH DAKOTA
NATIONAL WEATHER SERVICE SIOUX FALLS SD
500 AM CDT SUN MAR 26 2017

NOTE: "FAIR" INDICATES FEW OR NO CLOUDS BELOW 12,000 FEET WITH NO
SIGNIFICANT WEATHER AND/OR OBSTRUCTIONS TO VISIBILITY.


SDZ001>005-009-010-012>017-261100-
NORTHWEST AND NORTH CENTRAL SOUTH DAKOTA

CITY           SKY/WX    TMP DP  RH WIND       PRES   REMARKS
BUFFALO          N/A     45  35  68 N13       29.82S
FAITH            N/A     38  36  92 MISG      29.87R
MOBRIDGE       CLOUDY    39  35  86 SE3       29.89F
$$

SDZ012>016-024>037-041>051-057-063-072>074-261100-
SOUTHWEST AND SOUTH CENTRAL SOUTH DAKOTA

CITY           SKY/WX    TMP DP  RH WIND       PRES   REMARKS
RAPID CTY ARPT LGT RAIN  43  34  70 NW6       29.84S
PIERRE         CLOUDY    40  36  86 SE10      29.88F
CUSTER         CLOUDY    40  35  83 NE9       29.81F
ELLSWORTH AFB  CLOUDY    42  37  80 CALM      29.84S
PHILIP         CLOUDY    39  38  96 NE9       29.84S
PINE RIDGE     CLOUDY    44  30  57 SE8       29.80S
SPEARFISH      CLOUDY    43  34  70 W12       29.88R
WINNER         CLOUDY    41  39  93 S5        29.88F
$$

SDZ004>011-016>023-039-040-261100-
NORTHEAST SOUTH DAKOTA

CITY           SKY/WX    TMP DP  RH WIND       PRES   REMARKS
ABERDEEN       CLOUDY    35  33  92 E3        29.95F FOG
WATERTOWN      CLOUDY    35  34  96 CALM      29.92S
BROOKINGS      LGT RAIN  36  36 100 E5        29.91S VSB 3/4
SISSETON         N/A     35  35 100 CALM      29.95F
$$

SDZ017-020-022-023-036>040-048>070-261100-
SOUTHEAST SOUTH DAKOTA

CITY           SKY/WX    TMP DP  RH WIND       PRES   REMARKS
SIOUX FALLS    CLOUDY    38  37  97 NE6       29.91S FOG
HURON          CLOUDY    39  38  96 E3        29.92F
CHAMBERLAIN    CLOUDY    40  40  99 E3        29.91S
MITCHELL       CLOUDY    39  38  96 CALM      29.93S FOG
YANKTON        CLOUDY    37  36  93 CALM      29.92R
$$

ABBREVIATIONS USED IN REMARKS
   TC - TEMPERATURE IN CELSIUS
  WCI - WIND CHILL INDEX
   HX - HEAT INDEX
  VSB - VISIBILITY





USA.gov is the U.S. government's official web portal to all federal, state and local government web resources and services.